Regional Weather Roundup
Issued by NWS

Home | Current Version | Previous Version | Text Only | Print | Product List | Glossary Off
Versions: 1 2 3 4 5 6 7 8 9 10 11 12 13 14 15 16 17 18 19 20 21 22 23 24 25 26 27 28 29 30 31 32 33 34 35 36 37 38 39 40 41 42 43 44 45 46 47 48 49 50

000
ASUS43 KIND 241909
RWRIN

WEATHER ROUNDUP FOR INDIANA
NATIONAL WEATHER SERVICE INDIANAPOLIS IN
200 PM EST FRI FEB 24 2017

NOTE: "FAIR" INDICATES FEW OR NO CLOUDS BELOW 12,000 FEET WITH NO
SIGNIFICANT WEATHER AND/OR OBSTRUCTIONS TO VISIBILITY.

* - STATION DOES NOT REPORT WEATHER SUCH AS PRECIPITATION OR FOG.

+ - STATION NOT QUALITY CONTROLLED BY THE NATIONAL WEATHER SERVICE.
    USE DATA WITH CAUTION...ESPECIALLY DEWPOINT AND RELATIVE
    HUMIDITY OBSERVATIONS.

INZ001>003-010>013-019-020-242000-
NORTHWEST INDIANA

CITY           SKY/WX    TMP DP  RH WIND       PRES   REMARKS
GARY /AIRPORT/ CLOUDY    39  39 100 N8        29.45F FOG
KNOX *+        CLOUDY    63  36  36 SW15G22   29.43F
LA PORTE +     CLOUDY    63  56  79 SW13      29.43F
MICHIGAN CITY+ CLOUDY    46  46 100 W6        29.44F
MONTICELLO +   CLOUDY    66  55  68 S21       29.46F
RENSSELAER +   CLOUDY    64  55  72 SW16      29.44S
VALPARAISO     CLOUDY    60  55  83 SW8G18    29.43F

$$

LMZ046-743>745-242000-
SOUTHERN LAKE MICHIGAN

STATION/POSITION TIME  TEMP    WIND        PRES    WAVE
                       AIR SEA DIR/SP/G            HT
                 (UTC) (F)     (DEG/KT/KT) (MB)    (FT)
BURNS HARBOR     1830   37     260/  4/  6  998.0F
MICHIGAN CITY    1840   36     210/  9/ 10   N/A

$$

INZ004-005-014>016-021>024-242000-
NORTH CENTRAL INDIANA

CITY           SKY/WX    TMP DP  RH WIND       PRES   REMARKS
ELKHART        CLOUDY    64  55  72 S9        29.45F
GOSHEN         CLOUDY    64  54  69 S15       29.45F
LOGANSPORT +   CLOUDY    64  54  68 S23G29    29.48F
PERU/GRISSOM   LGT RAIN  65  57  76 SW18G26   29.47R
ROCHESTER +    CLOUDY    64  55  72 S12       29.47F
SOUTH BEND     CLOUDY    63  56  78 S12       29.44F
WARSAW +       CLOUDY    64  55  72 SW6G16    29.47F

$$

INZ006>009-017-018-025>027-242000-
NORTHEAST INDIANA

CITY           SKY/WX    TMP DP  RH WIND       PRES   REMARKS
ANGOLA *+      CLOUDY    63  55  77 S16       29.47S
AUBURN +       CLOUDY    68  52  56 SW14G23   29.52R
FORT WAYNE     CLOUDY    68  54  60 SW16      29.50R
HUNTINGTON +   CLOUDY    68  53  58 SW9G20    29.52R
KENDALLVILLE + CLOUDY    63  56  79 S15       29.48R

$$

INZ028-029-035-036-043>045-051>053-242000-
WEST CENTRAL INDIANA

CITY           SKY/WX    TMP DP  RH WIND       PRES   REMARKS
LAFAYETTE      CLOUDY    67  56  67 SW14G26   29.46F
TERRE HAUTE    CLOUDY    66  54  65 SW12      29.51S

$$

INZ030>032-037>040-046>048-054>057-064-065-242000-
CENTRAL INDIANA

CITY           SKY/WX    TMP DP  RH WIND       PRES   REMARKS
ANDERSON       CLOUDY    72  48  43 SW17G35   29.53S
CP ATTERBURY + MOSUNNY   77  48  36 SW17G35   29.53F
COLUMBUS       SUNNY     75  52  43 S21G30    29.53F
FISHERS *+     CLOUDY    68  55  64 SW14G24   29.53S
FRANKFORT +    CLOUDY    67  57  68 SW12G24   29.50F
GREENWOOD *+   PTSUNNY   73  53  48 SW15G25   29.54F
INDIANAPOLIS   CLOUDY    69  52  54 SW25G32   29.53S
-EAGLE CREEK   CLOUDY    69  52  54 SW10G24   29.53S
KOKOMO +       LGT RAIN  66  55  67 SW15G24   29.51S
MARION +       LGT RAIN  64  54  71 S5G12     29.48F
MT COMFORT *+  CLOUDY    72  52  49 SW16G23   29.52F
SHELBYVILLE    MOSUNNY   77  50  38 S26G32    29.51F
ZIONSVILLE +   CLOUDY    64  55  73 SW15G21   29.54R

$$

INZ033-034-041-042-049-050-058-059-242000-
EAST CENTRAL INDIANA

CITY           SKY/WX    TMP DP  RH WIND       PRES   REMARKS
MUNCIE         CLOUDY    73  51  46 SW15G30   29.52R

$$

INZ060-061-067>069-081>083-085>088-242000-
SOUTHWEST INDIANA

CITY           SKY/WX    TMP DP  RH WIND       PRES   REMARKS
EVANSVILLE     SUNNY     77  49  37 S18G30    29.54F
HUNTINGBURG *+ PTSUNNY   75  52  43 SW18      29.55F
WASHINGTON +   MOSUNNY   73  49  42 SW22G35   29.53F

$$

INZ062-063-066-070>080-084-089>092-242000-
SOUTH CENTRAL AND SOUTHEAST INDIANA

CITY           SKY/WX    TMP DP  RH WIND       PRES   REMARKS
BEDFORD +      MOSUNNY   75  46  35 SW26G33   29.54F
BLOOMINGTON    CLOUDY    73  51  46 SW21G29   29.53F
MADISON *+     SUNNY     77  46  33 SW18G26   29.59F
NORTH VERNON + MOSUNNY   75  48  38 S28G37    29.57F
SEYMOUR +      MOSUNNY   79  52  38 SW23G30   29.54F

$$




USA.gov is the U.S. government's official web portal to all federal, state and local government web resources and services.